Weather History for Puyallup, WA

Change the Weather History Date:

Saturday, April 6, 2013

  Actual Average (KTCM) Record (KTCM)
Temperature  
Mean Temperature 47 °F -  
Max Temperature 53 °F 53 °F 77 °F (2007)
Min Temperature 41 °F 35 °F 28 °F (1997)
Degree Days  
Heating Degree Days 18    
Moisture  
Dew Point 44 °F    
Average Humidity 91    
Maximum Humidity 100    
Minimum Humidity 62    
Precipitation  
Precipitation 0.42 in - - ()
Sea Level Pressure  
Sea Level Pressure 29.87 in    
Wind  
Wind Speed 3 mph (SW)    
Max Wind Speed 14 mph    
Max Gust Speed 23 mph    
Visibility 9 miles    
Events Rain    
Averages and records for this station are not official NWS values.
T = Trace of Precipitation, MM = Missing Value Source: NWS Daily Summary

Daily Weather History Graph

Daily Weather History Graph

Search for Another Location

Airport:

Trip Planner

Search our weather history database for the weather conditions in past years. The results will help you decide how hot, cold, wet, or windy it might be!

Date:

Astronomy

Apr. 06, 2013 Rise Set
Actual Time 6:37 AM PDT 7:46 PM PDT
Civil Twilight 6:06 AM PDT 8:17 PM PDT
Nautical Twilight 5:28 AM PDT 8:55 PM PDT
Astronomical Twilight 4:49 AM PDT 9:35 PM PDT
Moon 4:38 AM PDT (4/6) 4:08 PM PDT (4/6)
Length of Visible Light 14h 10m
Length of Day
13h 08m
Waning Crescent, 14% of the Moon is Illuminated
Apr 6
Waning Crescent
Apr 10
New
Apr 18
First Quarter
Apr 25
Full
May 2
Last Quarter

Hourly Weather History & Observations

Time (PDT) Temp. Windchill Dew Point Humidity Pressure Visibility Wind Dir Wind Speed Gust Speed Precip Events Conditions
12:15 AM 46.4 °F - 46.4 °F 100% 29.74 in 10.0 mi Calm Calm - N/A   Mostly Cloudy
12:35 AM 46.4 °F - 46.4 °F 100% 29.74 in 10.0 mi Calm Calm - N/A   Scattered Clouds
12:55 AM 46.4 °F - 46.4 °F 100% 29.74 in 10.0 mi Calm Calm - N/A   Mostly Cloudy
1:15 AM 48.2 °F - 44.6 °F 87% 29.74 in 10.0 mi South 5.8 mph - N/A   Mostly Cloudy
1:35 AM 50.0 °F - 44.6 °F 82% 29.74 in 10.0 mi South 5.8 mph - N/A   Overcast
1:55 AM 50.0 °F - 44.6 °F 82% 29.74 in 10.0 mi Calm Calm - N/A   Mostly Cloudy
2:15 AM 48.2 °F - 46.4 °F 93% 29.77 in 4.0 mi WSW 8.1 mph - 0.08 in Rain Rain
2:35 AM 48.2 °F - 46.4 °F 93% 29.77 in 5.0 mi SSW 9.2 mph 23.0 mph 0.17 in Rain Light Rain
2:55 AM 46.4 °F 44.3 °F 46.4 °F 100% 29.78 in 10.0 mi SSW 4.6 mph - 0.18 in   Mostly Cloudy
3:15 AM 46.4 °F 45.2 °F 46.4 °F 100% 29.80 in 8.0 mi SW 3.5 mph - N/A   Mostly Cloudy
3:35 AM 46.4 °F 42.9 °F 46.4 °F 100% 29.79 in 10.0 mi SSW 6.9 mph - N/A   Scattered Clouds
4:15 AM 48.2 °F - 46.4 °F 93% 29.81 in 10.0 mi Calm Calm - N/A   Mostly Cloudy
4:35 AM 46.4 °F 43.5 °F 46.4 °F 100% 29.82 in 10.0 mi SSW 5.8 mph - N/A   Mostly Cloudy
4:55 AM 48.2 °F - 44.6 °F 87% 29.83 in 10.0 mi SSW 3.5 mph - N/A   Partly Cloudy
5:15 AM 46.4 °F 44.3 °F 42.8 °F 87% 29.83 in 10.0 mi SSW 4.6 mph - N/A   Scattered Clouds
5:35 AM 46.4 °F 45.2 °F 42.8 °F 87% 29.84 in 10.0 mi SSW 3.5 mph - N/A   Mostly Cloudy
5:55 AM 46.4 °F 45.2 °F 42.8 °F 87% 29.83 in 8.0 mi SSW 3.5 mph - N/A Rain Light Rain
6:15 AM 46.4 °F 45.2 °F 42.8 °F 87% 29.83 in 10.0 mi SSW 3.5 mph - N/A   Mostly Cloudy
6:35 AM 46.4 °F 40.4 °F 42.8 °F 87% 29.87 in 5.0 mi West 13.8 mph 23.0 mph 0.04 in Rain Light Rain
6:55 AM 44.6 °F 43.1 °F 41.0 °F 87% 29.86 in 8.0 mi WSW 3.5 mph - 0.07 in Rain Light Rain
7:15 AM 42.8 °F - 42.8 °F 100% 29.86 in 6.0 mi Calm Calm - 0.02 in Rain Light Rain
7:35 AM 44.6 °F - 44.6 °F 100% 29.87 in 9.0 mi Calm Calm - 0.03 in Rain Light Rain
7:55 AM 44.6 °F - 44.6 °F 100% 29.87 in 9.0 mi Calm Calm - 0.03 in Rain Light Rain
8:15 AM 44.6 °F - 44.6 °F 100% 29.88 in 10.0 mi Calm Calm - N/A   Overcast
8:35 AM 44.6 °F 43.1 °F 44.6 °F 100% 29.88 in 2.0 mi SW 3.5 mph - 0.02 in Rain Light Rain
9:15 AM 44.6 °F - 44.6 °F 100% 29.90 in 5.0 mi Calm Calm - N/A Rain Light Rain
9:35 AM 44.6 °F - 44.6 °F 100% 29.90 in 3.0 mi Calm Calm - 0.04 in Rain Light Rain
9:55 AM 46.4 °F - 46.4 °F 100% 29.91 in 10.0 mi Calm Calm - 0.05 in   Mostly Cloudy
10:15 AM 46.4 °F 45.2 °F 46.4 °F 100% 29.91 in 10.0 mi South 3.5 mph - N/A   Mostly Cloudy
10:35 AM 48.2 °F - 46.4 °F 93% 29.92 in 10.0 mi SSW 3.5 mph - N/A   Mostly Cloudy
10:55 AM 48.2 °F - 44.6 °F 87% 29.93 in 10.0 mi SSW 3.5 mph - N/A Rain Light Rain
11:15 AM 46.4 °F 42.9 °F 44.6 °F 93% 29.94 in 5.0 mi SW 6.9 mph 16.1 mph N/A Rain Light Rain
11:35 AM 46.4 °F 43.5 °F 44.6 °F 93% 29.94 in 9.0 mi SSW 5.8 mph - 0.01 in Rain Light Rain
11:55 AM 46.4 °F 45.2 °F 44.6 °F 93% 29.94 in 10.0 mi SW 3.5 mph - 0.01 in   Scattered Clouds
12:15 PM 48.2 °F - 44.6 °F 87% 29.94 in 10.0 mi SW 4.6 mph - N/A Rain Light Rain
12:35 PM 48.2 °F - 44.6 °F 87% 29.94 in 10.0 mi SSW 3.5 mph - N/A   Mostly Cloudy
12:55 PM 48.2 °F - 44.6 °F 87% 29.94 in 10.0 mi WSW 12.7 mph 23.0 mph N/A   Mostly Cloudy
1:15 PM 48.2 °F - 44.6 °F 87% 29.95 in 10.0 mi SW 9.2 mph 17.3 mph N/A   Mostly Cloudy
1:35 PM 48.2 °F - 44.6 °F 87% 29.94 in 10.0 mi SSW 8.1 mph - N/A   Mostly Cloudy
1:55 PM 50.0 °F - 44.6 °F 82% 29.95 in 10.0 mi SSW 9.2 mph 16.1 mph N/A   Mostly Cloudy
2:15 PM 50.0 °F - 44.6 °F 82% 29.95 in 10.0 mi SSW 6.9 mph - N/A   Mostly Cloudy
2:35 PM 50.0 °F - 44.6 °F 82% 29.95 in 10.0 mi WSW 5.8 mph - N/A   Mostly Cloudy
2:55 PM 53.6 °F - 41.0 °F 62% 29.95 in 10.0 mi WSW 11.5 mph 19.6 mph N/A   Mostly Cloudy
3:15 PM 51.8 °F - 42.8 °F 71% 29.94 in 10.0 mi West 11.5 mph 17.3 mph N/A   Mostly Cloudy
3:35 PM 50.0 °F - 44.6 °F 82% 29.94 in 10.0 mi WNW 5.8 mph - N/A   Mostly Cloudy
3:55 PM 50.0 °F - 44.6 °F 82% 29.94 in 10.0 mi NW 5.8 mph - N/A   Mostly Cloudy
4:15 PM 51.8 °F - 44.6 °F 76% 29.93 in 10.0 mi West 6.9 mph - N/A   Mostly Cloudy
4:35 PM 46.4 °F 44.3 °F 41.0 °F 81% 29.94 in 2.5 mi SSW 4.6 mph 19.6 mph 0.04 in Rain Light Rain
4:55 PM 46.4 °F 43.5 °F 44.6 °F 93% 29.94 in 4.0 mi SW 5.8 mph - 0.05 in Rain Light Rain
5:15 PM 46.4 °F 44.3 °F 46.4 °F 100% 29.94 in 10.0 mi SW 4.6 mph - 0.01 in   Overcast
5:35 PM 46.4 °F 44.3 °F 46.4 °F 100% 29.93 in 10.0 mi SW 4.6 mph - 0.01 in   Mostly Cloudy
5:55 PM 46.4 °F - 46.4 °F 100% 29.93 in 10.0 mi Calm Calm - 0.01 in   Mostly Cloudy
6:15 PM 46.4 °F - 44.6 °F 93% 29.93 in 10.0 mi Calm Calm - N/A   Scattered Clouds
6:35 PM 46.4 °F 42.9 °F 44.6 °F 93% 29.93 in 10.0 mi SW 6.9 mph - N/A   Mostly Cloudy
6:55 PM 46.4 °F 44.3 °F 42.8 °F 87% 29.92 in 10.0 mi SW 4.6 mph - N/A   Mostly Cloudy
7:15 PM 46.4 °F 45.2 °F 41.0 °F 81% 29.92 in 10.0 mi South 3.5 mph - N/A   Scattered Clouds
7:35 PM 46.4 °F - 42.8 °F 87% 29.91 in 10.0 mi Calm Calm - N/A Rain Light Rain
7:55 PM 44.6 °F - 42.8 °F 93% 29.90 in 10.0 mi Calm Calm - N/A Rain Light Rain
8:15 PM 44.6 °F - 41.0 °F 87% 29.89 in 10.0 mi Calm Calm - N/A   Mostly Cloudy
8:35 PM 44.6 °F - 41.0 °F 87% 29.88 in 10.0 mi Calm Calm - N/A   Scattered Clouds
8:55 PM 44.6 °F - 41.0 °F 87% 29.88 in 10.0 mi Calm Calm - N/A Rain Light Rain
9:15 PM 44.6 °F - 41.0 °F 87% 29.87 in 9.0 mi Calm Calm - N/A Rain Light Rain
9:35 PM 44.6 °F - 41.0 °F 87% 29.87 in 10.0 mi Calm Calm - N/A Rain Light Rain
9:55 PM 44.6 °F - 42.8 °F 93% 29.86 in 10.0 mi Calm Calm - N/A   Partly Cloudy
10:15 PM 42.8 °F - 42.8 °F 100% 29.85 in 10.0 mi Calm Calm - N/A   Mostly Cloudy
10:55 PM 42.8 °F - 42.8 °F 100% 29.83 in 10.0 mi Calm Calm - N/A   Mostly Cloudy
11:15 PM 41.0 °F - 41.0 °F 100% 29.82 in 10.0 mi Calm Calm - N/A   Overcast
11:35 PM 41.0 °F - 41.0 °F 100% 29.80 in 10.0 mi Calm Calm - N/A Rain Light Rain
11:55 PM 41.0 °F - 41.0 °F 100% 29.77 in 10.0 mi Calm Calm - N/A Rain Light Rain